Regional Weather Roundup
Issued by NWS

Home | Current Version | Previous Version | Graphics & Text | Print | Product List | Glossary On
Versions: 1 2 3 4 5 6 7 8 9 10 11 12 13 14 15 16 17 18 19 20 21 22 23 24 25 26 27 28 29 30 31 32 33 34 35 36 37 38 39 40 41 42 43 44 45 46 47 48 49 50
000
ASUS43 KIND 252109
RWRIN

WEATHER ROUNDUP FOR INDIANA
NATIONAL WEATHER SERVICE INDIANAPOLIS IN
500 PM EDT MON JUL 25 2016

NOTE: "FAIR" INDICATES FEW OR NO CLOUDS BELOW 12,000 FEET WITH NO
SIGNIFICANT WEATHER AND/OR OBSTRUCTIONS TO VISIBILITY.

* - STATION DOES NOT REPORT WEATHER SUCH AS PRECIPITATION OR FOG.

+ - STATION NOT QUALITY CONTROLLED BY THE NATIONAL WEATHER SERVICE.
    USE DATA WITH CAUTION...ESPECIALLY DEWPOINT AND RELATIVE
    HUMIDITY OBSERVATIONS.

INZ001>003-010>013-019-020-252200-
NORTHWEST INDIANA

CITY           SKY/WX    TMP DP  RH WIND       PRES   REMARKS
GARY /AIRPORT/ MOSUNNY   84  68  58 VRB6      29.99F
KNOX *+        MOSUNNY   81  52  36 NW7       30.00S
LA PORTE +     MOSUNNY   84  63  49 N7        30.01S
MICHIGAN CITY+ MOSUNNY   81  59  47 NE6       30.01S
MONTICELLO +   CLOUDY    82  68  62 NW5       29.99S
RENSSELAER +   CLOUDY    82  70  65 N3        30.00S
VALPARAISO     PTSUNNY   84  61  45 N5        30.00F

$$

LMZ046-743>745-252200-
SOUTHERN LAKE MICHIGAN

STATION/POSITION TIME  TEMP    WIND        PRES    WAVE
                       AIR SEA DIR/SP/G            HT
                 (UTC) (F)     (DEG/KT/KT) (MB)    (FT)
BURNS HARBOR     2000   78      60/  6/  7 1016.3F
MICHIGAN CITY    2000   75      10/  4/  5   N/A
5NW MICH CITY    2000   75 76   40/  4/  4   N/A     1

$$

INZ004-005-014>016-021>024-252200-
NORTH CENTRAL INDIANA

CITY           SKY/WX    TMP DP  RH WIND       PRES   REMARKS
ELKHART        SUNNY     84  70  61 NW12      29.99F
GOSHEN         SUNNY     86  58  38 NW8       29.98S
LOGANSPORT +   CLOUDY    82  70  65 NW3       30.00S
ROCHESTER +    MOSUNNY   86  70  58 NW6       30.00S
SOUTH BEND     SUNNY     82  65  56 NW9       30.00S
WARSAW +       CLOUDY    84  64  51 NW10      29.99S

$$

INZ006>009-017-018-025>027-252200-
NORTHEAST INDIANA

CITY           SKY/WX    TMP DP  RH WIND       PRES   REMARKS
ANGOLA *+        N/A     88  82  84 NW8       29.97F HX 108
AUBURN +       SUNNY     86  61  42 W12       29.97F
FORT WAYNE     PTSUNNY   86  69  56 W10       29.98S
HUNTINGTON +   PTSUNNY  N/A N/A N/A CALM      29.98S

$$

INZ028-029-035-036-043>045-051>053-252200-
WEST CENTRAL INDIANA

CITY           SKY/WX    TMP DP  RH WIND       PRES   REMARKS
CRAWFORDSVL +  MOSUNNY   83  74  76 NW6       30.00F
GREENCASTLE +  SUNNY     86  75  70 NW3       30.01S HX  95
LAFAYETTE      MOSUNNY   84  72  67 W5        29.99S
TERRE HAUTE    CLOUDY    86  73  65 CALM      29.99S

$$

INZ030>032-037>040-046>048-054>057-064-065-252200-
CENTRAL INDIANA

CITY           SKY/WX    TMP DP  RH WIND       PRES   REMARKS
COLUMBUS       SUNNY     86  75  70 NW6       29.99S HX  95
INDIANAPOLIS   PTSUNNY   87  70  56 W10       29.99F
-EAGLE CREEK   SUNNY     88  72  58 NW9       29.99S
KOKOMO *+      CLOUDY    84  70  61 W8        29.99F
MARION +       PTSUNNY   82  70  66 NW7       30.00S
MT COMFORT *+  MOSUNNY   88  72  58 NW8       30.00F
SHELBYVILLE    MOSUNNY   90  70  51 W7        29.98F HX  95
ZIONSVILLE +   MOSUNNY   85  75  72 N12       30.01S

$$

INZ033-034-041-042-049-050-058-059-252200-
EAST CENTRAL INDIANA

CITY           SKY/WX    TMP DP  RH WIND       PRES   REMARKS
MUNCIE         MOSUNNY   86  74  67 NW7       29.99S

$$

INZ060-061-067>069-081>083-085>088-252200-
SOUTHWEST INDIANA

CITY           SKY/WX    TMP DP  RH WIND       PRES   REMARKS
EVANSVILLE     CLOUDY    80  76  87 NE3       29.99S
HUNTINGBURG *+ CLOUDY    79  72  78 S6        30.00S
WASHINGTON +   CLOUDY    84  78  82 MISG      29.97F

$$

INZ062-063-066-070>080-084-089>092-252200-
SOUTH CENTRAL AND SOUTHEAST INDIANA

CITY           SKY/WX    TMP DP  RH WIND       PRES   REMARKS
BLOOMINGTON    CLOUDY    87  71  58 NW5       30.00F
MADISON *+     CLOUDY    79  73  83 W5        30.02R
NORTH VERNON + MOSUNNY   91  77  62 CALM      29.99F HX 105

$$





USA.gov is the U.S. government's official web portal to all federal, state and local government web resources and services.